Regional Weather Roundup
Issued by NWS

Home | Current Version | Previous Version | Graphics & Text | Print | Product List | Glossary On
Versions: 1 2 3 4 5 6 7 8 9 10 11 12 13 14 15 16 17 18 19 20 21 22 23 24 25 26 27 28 29 30 31 32 33 34 35 36 37 38 39 40 41 42 43 44 45 46 47 48 49 50
000
ASUS43 KFSD 222102
RWRSD

WEATHER ROUNDUP FOR SOUTH DAKOTA
NATIONAL WEATHER SERVICE SIOUX FALLS SD
400 PM CDT WED OCT 22 2014

NOTE: "FAIR" INDICATES FEW OR NO CLOUDS BELOW 12,000 FEET WITH NO
SIGNIFICANT WEATHER AND/OR OBSTRUCTIONS TO VISIBILITY.


SDZ001>005-009-010-012>017-222200-
NORTHWEST AND NORTH CENTRAL SOUTH DAKOTA

CITY           SKY/WX    TMP DP  RH WIND       PRES   REMARKS
FAITH            N/A     65  34  31 W15G24    29.94R
MOBRIDGE       MOSUNNY   65  43  44 W12       29.88R
$$

SDZ012>016-024>037-041>051-057-063-072>074-222200-
SOUTHWEST AND SOUTH CENTRAL SOUTH DAKOTA

CITY           SKY/WX    TMP DP  RH WIND       PRES   REMARKS
RAPID CTY ARPT SUNNY     64  28  25 CALM      29.99S
PIERRE         MOSUNNY   64  42  44 NW14      29.93S
CUSTER         SUNNY     55  24  30 NW10G21   30.04F
ELLSWORTH AFB  SUNNY     64  32  29 E5        29.98S
PHILIP         SUNNY     68  34  28 NW13      29.96S
PINE RIDGE     SUNNY     63  36  36 W13       30.02F
SPEARFISH      FAIR      59  28  31 W12       30.00F
WINNER         FAIR      65  46  50 NW12      29.98S
$$

SDZ004>011-016>023-039-040-222200-
NORTHEAST SOUTH DAKOTA

CITY           SKY/WX    TMP DP  RH WIND       PRES   REMARKS
ABERDEEN       CLOUDY    57  53  86 W7        29.90S
WATERTOWN      RAIN      55  52  89 W9        29.91R FOG
SISSETON         N/A     59  52  77 W13       29.88R
$$

SDZ017-020-022-023-036>040-048>070-222200-
SOUTHEAST SOUTH DAKOTA

CITY           SKY/WX    TMP DP  RH WIND       PRES   REMARKS
SIOUX FALLS    CLOUDY    69  53  56 SW7       29.93R
HURON          CLOUDY    57  54  89 W9        29.94R
CHAMBERLAIN    CLOUDY    58  52  79 W5        29.97S
MITCHELL         N/A     57  55  93 W9        29.95R
YANKTON        CLOUDY    57  54  88 N3        29.95R
$$

ABBREVIATIONS USED IN REMARKS
   TC - TEMPERATURE IN CELSIUS
  WCI - WIND CHILL INDEX
   HX - HEAT INDEX
  VSB - VISIBILITY




USA.gov is the U.S. government's official web portal to all federal, state and local government web resources and services.